X-CUBESAT (42707 NORAD) Tracking and Keplerian Element Data

This shows tracking and keplerian element data for the satellite.

Feedback or suggestion? Click here.




ElementValue
Catalog42707
NameX-CUBESAT
Epoch Orbit8515
Epoch Day315.39650752
Epoch Year2018
RAAN315.0477
Inclination51.6288
Eccentricity0.0004995
Argument of Perigee55.3446
Mean Anonmoly304.8028
Mean Motion15.85120073
Decay Rate0.00089427
L11 42707U 98067LQ 18315.39650752 .00089427 00000-0 36925-3 0 9993
L22 42707 51.6288 315.0477 0004995 55.3446 304.8028 15.85120073 85159

Live tracking and technical data element details for X-CUBESAT (NORAD 42707). X-CUBESAT can be tracked NOW for your location showing map with azimuth and elevation plus other details from your city location.

Track the satellite on the map from your city or location and see movement details for azimuth, elevation, latitude, longitude, range, height, and movement on the map or in text.







IsCatalogInMostPopularTable: catalog: 42707, numindb: 186
Update: records affected: 1



GetName: 42707 X-CUBESAT

Hit Count: updated at: Mon, 12 Nov 2018 17:31:13 GMT